CW6617 Weather Reports


Display with metric or nautical units.
time (UTC)temp
F
wind
direction
speed
MPH
gust
MPH
rain 1hr
in
rain 24hr
in
rain mn
in
humidity
%
barometer
mb
20260508061203 48 95 1.0 7.0 0.00 0.00 0.00 90 1016.2
20260508060704 48 57 3.0 7.0 0.00 0.00 0.00 90 1016.2
20260508060204 48 89 2.0 7.0 0.00 0.00 0.00 90 1016.2
20260508054703 48 115 2.0 6.0 0.00 0.00 0.00 90 1016.1
20260508054204 48 71 3.0 7.0 0.00 0.00 0.00 90 1016.2
20260508053704 48 114 2.0 7.0 0.00 0.00 0.00 90 1016.2
20260508053203 48 115 2.0 7.0 0.00 0.00 0.00 90 1016.1
20260508051204 47 80 3.0 7.0 0.00 0.00 0.00 89 1016.0
20260508050703 47 110 2.0 5.0 0.00 0.00 0.00 89 1016.0
20260508050203 47 74 3.0 9.0 0.00 0.00 0.00 90 1016.0
20260508044703 47 97 2.0 6.0 0.00 0.00 0.00 89 1015.9
20260508044204 47 67 1.0 3.0 0.00 0.00 0.00 89 1015.9
20260508043703 47 63 1.0 5.0 0.00 0.00 0.00 89 1015.9
20260508041703 47 103 1.0 3.0 0.00 0.00 0.00 89 1015.8
20260508041204 47 61 1.0 5.0 0.00 0.00 0.00 89 1015.8
20260508040703 48 54 2.0 5.0 0.00 0.00 0.00 90 1015.7
20260508040203 48 94 2.0 8.0 0.00 0.00 0.00 90 1015.8
20260508034204 48 60 2.0 7.0 0.00 0.00 0.00 90 1015.7
20260508033703 47 70 2.0 7.0 0.00 0.00 0.00 90 1015.8
20260508033204 47 74 2.0 6.0 0.00 0.00 0.00 90 1015.8
20260508031204 47 72 2.0 5.0 0.00 0.00 0.00 91 1015.8
20260508030703 47 109 2.0 5.0 0.00 0.00 0.00 91 1015.9
20260508030204 47 104 1.0 5.0 0.00 0.00 0.00 91 1015.9
20260508024704 47 63 1.0 2.0 0.00 0.00 0.00 91 1016.0
20260508023704 47 68 1.0 2.0 0.00 0.00 0.00 91 1016.0
20260508023204 47 65 1.0 5.0 0.00 0.00 0.00 91 1016.0
20260508020704 47 89 1.0 3.0 0.00 0.00 0.00 91 1016.0
20260508020204 47 67 2.0 5.0 0.00 0.00 0.00 92 1016.0
20260508014704 46 87 1.0 3.0 0.00 0.00 0.00 91 1016.1
20260508014204 46 87 2.0 3.0 0.00 0.00 0.00 92 1016.1
20260508013703 46 88 1.0 2.0 0.00 0.00 0.00 92 1016.1
20260508013204 46 87 1.0 5.0 0.00 0.00 0.00 92 1016.1
20260508011704 46 96 1.0 5.0 0.00 0.00 0.00 91 1016.1
20260508011204 46 57 2.0 6.0 0.00 0.00 0.00 91 1016.1
20260508010704 46 103 1.0 2.0 0.00 0.00 0.00 91 1016.2
20260508004705 45 104 0.0 2.0 0.00 0.00 0.00 90 1016.3
20260508004203 46 104 0.0 1.0 0.00 0.00 0.00 90 1016.2
20260508003704 46 104 0.0 1.0 0.00 0.00 0.00 90 1016.3
20260508003204 46 104 0.0 1.0 0.00 0.00 0.00 90 1016.4
20260508000704 45 104 1.0 2.0 0.00 0.00 0.00 89 1016.4
20260508000205 45 103 0.0 3.0 0.00 0.00 0.00 89 1016.3
20260507234704 45 65 0.0 1.0 0.00 0.00 0.00 88 1016.5
20260507234204 45 65 0.0 0.0 0.00 0.00 0.00 87 1016.5
20260507233703 46 65 0.0 0.0 0.00 0.00 0.00 87 1016.5
20260507233204 46 65 0.0 1.0 0.00 0.00 0.00 87 1016.6
20260507231704 46 65 0.0 0.0 0.00 0.00 0.00 85 1016.6
20260507230704 47 65 0.0 0.0 0.00 0.00 0.00 85 1016.6
20260507230203 47 65 0.0 0.0 0.00 0.00 0.00 85 1016.7
20260507224704 47 65 0.0 0.0 0.00 0.00 0.00 84 1016.8
20260507224203 48 65 0.0 0.0 0.00 0.00 0.00 84 1016.8
20260507223704 48 65 0.0 0.0 0.00 0.00 0.00 84 1016.9
20260507223204 48 65 0.0 1.0 0.00 0.00 0.00 84 1016.8
20260507221704 48 62 2.0 5.0 0.00 0.00 0.00 84 1016.5
20260507221203 48 119 1.0 3.0 0.00 0.00 0.00 83 1016.4
20260507220704 48 148 1.0 3.0 0.00 0.00 0.00 83 1016.5
20260507220204 49 158 1.0 2.0 0.00 0.00 0.00 83 1016.6
20260507214704 49 158 0.0 0.0 0.00 0.00 0.00 82 1016.9
20260507213703 50 158 0.0 0.0 0.00 0.00 0.00 81 1016.9
20260507213204 50 158 0.0 0.0 0.00 0.00 0.00 81 1016.9
20260507211705 50 158 0.0 1.0 0.00 0.00 0.00 80 1016.8
20260507211204 51 158 1.0 2.0 0.00 0.00 0.00 80 1016.8
20260507210704 51 157 1.0 3.0 0.00 0.00 0.00 80 1016.7
20260507210204 51 157 1.0 2.0 0.00 0.00 0.00 79 1016.7
20260507204204 52 157 0.0 1.0 0.00 0.00 0.00 77 1016.4
20260507203703 52 157 0.0 0.0 0.00 0.00 0.00 77 1016.4
20260507203205 52 157 0.0 1.0 0.00 0.00 0.00 77 1016.4
20260507201203 53 157 0.0 0.0 0.00 0.00 0.00 75 1016.2
20260507200203 54 157 0.0 0.0 0.00 0.00 0.00 74 1016.1
20260507194703 54 157 0.0 1.0 0.00 0.00 0.00 73 1015.9
20260507193704 55 157 1.0 2.0 0.00 0.00 0.00 72 1015.8
20260507193203 55 157 0.0 3.0 0.00 0.00 0.00 72 1015.6
20260507191705 55 157 0.0 2.0 0.00 0.00 0.00 70 1015.5
20260507191204 55 159 2.0 6.0 0.00 0.00 0.00 70 1015.5
20260507190703 56 167 1.0 5.0 0.00 0.00 0.00 69 1015.4
20260507190204 56 168 3.0 8.0 0.00 0.00 0.00 70 1015.4
20260507184205 56 165 6.0 10.0 0.00 0.00 0.00 69 1015.5
20260507181703 58 173 4.0 13.0 0.00 0.00 0.00 68 1015.3
20260507181204 58 169 7.0 9.0 0.00 0.00 0.00 68 1015.3
20260507180704 58 162 6.0 13.0 0.00 0.00 0.00 68 1015.3
20260507180204 58 168 6.0 12.0 0.00 0.00 0.00 67 1015.2
20260507174704 58 171 3.0 10.0 0.00 0.00 0.00 65 1015.0
20260507174204 59 168 4.0 12.0 0.00 0.00 0.00 65 1015.1
20260507173703 59 166 3.0 9.0 0.00 0.00 0.00 64 1015.1
20260507173205 59 167 4.0 9.0 0.00 0.00 0.00 63 1015.1
20260507171203 59 169 1.0 7.0 0.00 0.00 0.00 61 1015.1
20260507170704 59 171 3.0 7.0 0.00 0.00 0.00 61 1015.1
20260507164704 59 165 5.0 9.0 0.00 0.00 0.00 60 1015.1
20260507164204 59 167 5.0 7.0 0.00 0.00 0.00 61 1015.2
20260507163704 59 182 5.0 10.0 0.00 0.00 0.00 61 1015.1
20260507161704 59 171 5.0 10.0 0.00 0.00 0.00 61 1015.1
20260507161203 59 170 7.0 13.0 0.00 0.00 0.00 62 1015.2
20260507160705 59 162 7.0 13.0 0.00 0.00 0.00 62 1015.2
20260507154203 60 167 7.0 12.0 0.00 0.00 0.00 62 1015.2
20260507153704 60 166 3.0 8.0 0.00 0.00 0.00 61 1015.2
20260507153204 61 159 5.0 14.0 0.00 0.00 0.00 61 1015.3
20260507151704 61 169 7.0 13.0 0.00 0.00 0.00 56 1015.2
20260507151203 61 155 2.0 8.0 0.00 0.00 0.00 52 1015.2
20260507150704 61 173 4.0 7.0 0.00 0.00 0.00 52 1015.1
20260507150204 61 82 0.0 6.0 0.00 0.00 0.00 51 1015.2
20260507144704 61 45 1.0 5.0 0.00 0.00 0.00 51 1015.2
20260507144204 62 161 2.0 7.0 0.00 0.00 0.00 51 1015.3
20260507143704 61 98 2.0 8.0 0.00 0.00 0.00 51 1015.3
20260507141204 61 116 3.0 8.0 0.00 0.00 0.00 51 1015.5
20260507140704 61 127 4.0 7.0 0.00 0.00 0.00 51 1015.5
20260507134704 60 105 2.0 8.0 0.00 0.00 0.00 51 1015.5
20260507134204 60 126 2.0 5.0 0.00 0.00 0.00 51 1015.5
20260507133703 60 103 1.0 5.0 0.00 0.00 0.00 51 1015.6
20260507133204 60 53 1.0 6.0 0.00 0.00 0.00 49 1015.5
20260507131704 61 15 2.0 5.0 0.00 0.00 0.00 49 1015.5
20260507131206 62 164 0.0 5.0 0.00 0.00 0.00 47 1015.6
20260507130203 62 166 2.0 7.0 0.00 0.00 0.00 47 1015.5
20260507124703 63 173 2.0 6.0 0.00 0.00 0.00 43 1015.6
20260507124203 64 200 2.0 6.0 0.00 0.00 0.00 45 1015.6
20260507123704 65 207 4.0 6.0 0.00 0.00 0.00 44 1015.6
20260507123204 64 185 3.0 7.0 0.00 0.00 0.00 47 1015.6
20260507121703 60 185 3.0 5.0 0.00 0.00 0.00 49 1015.7
20260507121204 60 149 1.0 2.0 0.00 0.00 0.00 48 1015.8
20260507120204 60 56 3.0 5.0 0.00 0.00 0.00 51 1015.8
20260507114704 58 312 2.0 6.0 0.00 0.00 0.00 51 1015.9
20260507113704 59 26 2.0 6.0 0.00 0.00 0.00 51 1015.9
20260507111704 60 71 1.0 3.0 0.00 0.00 0.00 52 1015.9
20260507111203 59 52 2.0 6.0 0.00 0.00 0.00 54 1016.0
20260507110704 59 65 5.0 8.0 0.00 0.00 0.00 52 1016.0
20260507110203 60 61 0.0 8.0 0.00 0.00 0.00 53 1016.1
20260507104704 62 45 2.0 6.0 0.00 0.00 0.00 52 1016.1
20260507103703 60 300 2.0 5.0 0.00 0.00 0.00 54 1016.1
20260507101204 61 311 2.0 6.0 0.00 0.00 0.00 56 1016.3
20260507100703 60 56 3.0 5.0 0.00 0.00 0.00 55 1016.2
20260507100204 61 155 5.0 8.0 0.00 0.00 0.00 58 1016.3
20260507094704 60 218 1.0 7.0 0.00 0.00 0.00 56 1016.3
20260507094204 60 189 5.0 7.0 0.00 0.00 0.00 60 1016.3
20260507093704 60 221 1.0 6.0 0.00 0.00 0.00 62 1016.2
20260507093204 60 172 1.0 6.0 0.00 0.00 0.00 62 1016.2
20260507091704 58 185 1.0 5.0 0.00 0.00 0.00 63 1016.3
20260507090703 58 187 5.0 7.0 0.00 0.00 0.00 68 1016.3
20260507090204 57 108 2.0 7.0 0.00 0.00 0.00 70 1016.3
20260507084704 56 159 1.0 5.0 0.00 0.00 0.00 76 1016.4
20260507084204 55 159 3.0 9.0 0.00 0.00 0.00 77 1016.4
20260507083704 55 155 3.0 9.0 0.00 0.00 0.00 80 1016.4
20260507083204 54 175 2.0 7.0 0.00 0.00 0.00 83 1016.3
20260507081704 51 171 2.0 7.0 0.00 0.00 0.00 89 1016.4
20260507081203 50 168 2.0 7.0 0.00 0.00 0.00 90 1016.4
20260507080704 50 173 4.0 7.0 0.00 0.00 0.00 92 1016.4
20260507080204 49 174 4.0 8.0 0.00 0.00 0.00 93 1016.3
20260507073704 47 165 3.0 6.0 0.00 0.00 0.00 95 1016.2
20260507073203 47 128 2.0 5.0 0.00 0.00 0.00 95 1016.3
20260507071704 46 105 1.0 5.0 0.00 0.00 0.00 95 1016.2
20260507071203 45 53 2.0 5.0 0.00 0.00 0.00 96 1016.2
20260507070704 44 16 2.0 5.0 0.00 0.00 0.00 95 1016.2
20260507070203 43 47 0.0 2.0 0.00 0.00 0.00 95 1016.2
20260507064703 42 45 0.0 0.0 0.00 0.00 0.00 94 1016.3
20260507064204 41 45 0.0 0.0 0.00 0.00 0.00 94 1016.2
20260507063704 41 45 0.0 0.0 0.00 0.00 0.00 94 1016.2
20260507063204 41 45 0.0 0.0 0.00 0.00 0.00 94 1016.2